Location: Platte
(43.3870°N, 98.8440°W)
Time: 08:36:30
(UTC-06:00)

Daily predictions for brighter satellites

Satellite Brightness Start Highest point End
(mag) Time Altitude Azimuth Time Altitude Azimuth Time Altitude Azimuth
Cosmos 1975 Rocket 4.0 17:25:51 10° SSW 17:30:03 50° WNW 17:34:17 10° N
OE (NEXTSAT) 4.4 17:26:58 10° WSW 17:30:32 88° NNW 17:34:08 10° ENE
CZ-3A R/B 3.5 17:26:51 10° WSW 17:31:15 67° NNW 17:54:19 10° ENE
COSMO-SKYMED 1 4.4 17:29:47 10° ENE 17:31:54 13° E 17:34:00 10° ESE
SJ-12 4.3 17:29:31 10° SE 17:33:24 44° ENE 17:37:21 10° N
Cosmos 2278 Rocket 2.2 17:28:25 10° SSW 17:34:04 84° ESE 17:39:46 10° NNE
Abrixas 2.5 17:33:15 10° WNW 17:36:12 84° SSW 17:39:09 10° ESE
Cosmos 921 Rocket 4.0 17:33:16 10° SSE 17:36:53 27° E 17:40:33 10° NE
Genesis I 3.6 17:35:19 10° NW 17:39:14 70° WSW 17:43:06 10° SSE
Okean 1 3.4 17:37:31 10° S 17:41:30 59° E 17:45:31 10° NNE
BREEZE-M DEB (TANK) 2.4 17:40:46 10° W 17:42:55 36° NNW 17:45:00 11° NE
Meteor 1-18 Rocket 4.3 17:38:54 10° S 17:44:34 84° E 17:50:25 10° NNE
NOSS 2-1 (E) 4.4 17:41:17 10° S 17:44:40 29° ESE 17:48:16 11° NE
Cosmos 1346 Rocket 3.1 17:41:00 10° SSE 17:44:42 43° E 17:48:23 10° NNE
IDEFIX/ARIANE 42P 2.6 17:39:47 10° SSE 17:44:52 58° ENE 17:49:58 10° N
Thor Agena Rocket 3.8 17:39:52 10° NNE 17:44:59 52° E 17:50:07 10° S
Cosmos 1238 Rocket 2.4 17:43:42 10° SSW 17:46:40 73° W 17:49:59 10° N
Cosmos 1536 Rocket 3.6 17:42:17 10° S 17:46:45 76° E 17:51:14 10° NNE
Cosmos 1833 Rocket 2.9 17:43:41 10° NNW 17:49:10 49° ENE 17:54:37 10° SE
Timation 2 Rocket 4.2 17:44:57 10° NNW 17:51:49 70° ENE 17:58:40 10° SE
CZ-2C R/B 4.4 17:48:34 10° N 17:52:57 57° WNW 17:57:21 10° SSW
CZ-3B DEB 2.4 17:51:58 10° WSW 17:55:38 66° NNW 18:04:31 11° NE
YAOGAN 1 2.5 17:52:33 10° SSE 17:56:51 67° ENE 18:01:09 10° N
Cosmos 2082 Rocket 2.2 17:53:00 10° NNW 17:58:41 68° ENE 18:04:20 10° SSE
Cosmos 1500 3.1 17:55:13 10° N 17:59:05 78° E 18:02:56 10° SSE
PAYLOAD A 4.4 17:56:24 10° S 18:01:14 66° W 18:06:19 10° NNW
Cosmos 1743 3.2 17:58:05 10° N 18:01:44 38° ENE 18:05:21 10° SSE
USA 234 3.4 17:56:13 11° NE 18:02:32 67° SE 18:09:00 10° SW
Intercosmos 25 3.3 18:03:01 10° N 18:06:02 39° E 18:09:18 10° SSE
CZ-2C R/B 2.5 18:01:28 10° SSE 18:06:31 88° WSW 18:11:43 10° NNW
COSMOS 2441 4.5 18:02:59 10° SSE 18:07:43 52° ENE 18:12:29 10° N
BREEZE M DEB (TANK) 3.4 18:01:37 10° SW 18:11:02 54° SSE 18:13:17 20° E
Timation 1 Rocket 4.3 18:05:12 10° SSW 18:11:06 67° ESE 18:17:01 10° NNE
Nadezhda 3 Rocket 4.0 18:08:43 10° S 18:14:53 70° E 18:21:09 10° NNE
NOSS 3-4 (A) 3.8 18:10:32 10° NNW 18:17:25 59° NE 18:24:42 10° SE
NOSS 3-4 (C) 3.8 18:10:38 10° NNW 18:17:31 58° NE 18:24:47 10° SE
SL-8 R/B 4.1 18:14:13 10° W 18:18:53 51° NNW 18:21:46 22° ENE
GRACE-2 3.9 18:16:54 10° SSE 18:19:37 52° E 18:21:22 19° NNE
GRACE-1 3.9 18:17:19 10° SSE 18:20:02 54° E 18:21:52 18° NNE
SKYMED 2 4.0 18:16:40 13° NNE 18:20:19 41° E 18:24:26 10° S
ERBS 4.1 18:18:25 10° NNW 18:20:41 17° NNE 18:20:41 17° NNE
Cosmos 1484 Rocket 2.7 18:17:28 10° SSE 18:21:06 51° ENE 18:24:43 10° N
Meteor 1-19 Rocket 4.3 18:16:38 10° S 18:22:21 63° E 18:28:09 10° NNE
Cosmos 407 Rocket 4.0 18:18:12 10° N 18:22:52 33° ENE 18:27:31 10° SE
Cosmos 2056 Rocket 3.9 18:21:24 10° S 18:26:26 43° ESE 18:29:41 20° NE
BREEZE M DEB (TANK) 3.2 18:23:28 10° WNW 18:26:47 60° NNE 18:34:21 15° ESE
SMAP 4.0 18:25:48 10° S 18:30:19 51° W 18:34:52 10° NNW
Okean 2 4.1 18:29:15 10° SSE 18:32:58 32° E 18:33:20 32° E
Cosmos 1892 Rocket 4.2 18:31:43 10° SSE 18:35:36 32° E 18:35:55 32° E
Meteor 2-9 Rocket 4.1 18:31:37 10° N 18:36:57 57° ENE 18:42:11 10° SSE
Cosmos 2369 Rocket 3.6 18:33:41 10° SE 18:36:50 19° ESE 18:36:50 19° ESE
Meteor 1-15 Rocket 4.4 18:32:12 10° N 18:37:55 49° ENE 18:43:29 10° SSE
Cosmos 1624 Rocket 4.0 18:34:07 10° S 18:39:12 60° ESE 18:42:27 23° NNE
Cosmos 1726 Rocket 3.8 18:36:18 10° N 18:40:35 45° ENE 18:44:52 10° SSE
Tiangong 1 0.8 18:37:39 10° W 18:40:41 81° S 18:41:00 68° ESE
Okean 1-7 Rocket 3.7 18:37:27 10° SSW 18:41:56 76° W 18:46:25 10° N
NOAA 12 4.3 18:36:59 10° SE 18:42:00 47° ENE 18:47:02 10° N
FALCON 9 R/B 4.2 18:15:35 10° WSW 18:43:22 56° S 18:49:06 20° ESE
ISS -1.4 18:41:13 10° NW 18:43:28 19° N 18:43:28 19° N
CZ-4 R/B 3.9 18:40:35 10° SSW 18:44:01 25° W 18:47:28 10° NW
Meteor 1-23 Rocket 4.2 18:39:18 10° S 18:44:53 60° E 18:49:53 13° NNE
Cosmos 1371 Rocket 4.0 18:39:51 10° SSW 18:45:13 84° ESE 18:49:17 18° NNE
Meteor 2-4 Rocket 3.5 18:40:51 10° S 18:46:10 70° E 18:51:12 12° NNE
Meteor 2-8 Rocket 4.3 18:48:28 10° S 18:54:28 66° E 19:00:32 10° NNE
Cosmos 1340 4.2 18:52:15 10° SSE 18:53:52 22° SSE 18:53:52 22° SSE
Cosmos 1934 Rocket 3.9 18:50:15 10° N 18:56:30 81° E 19:02:49 10° S
Cosmos 1606 Rocket 3.5 18:55:42 10° N 19:00:12 87° E 19:04:41 10° S
COSMO-SKYMED 1 3.1 19:05:16 18° N 19:08:26 59° WNW 19:12:41 10° SSW
METEOR-M 4.0 19:03:39 10° SSE 19:08:57 70° ENE 19:14:17 10° N
Cosmos 1666 3.5 19:09:31 10° NNW 19:13:16 51° W 19:17:03 10° S
Cosmos 1190 Rocket 4.1 19:09:38 10° NNW 19:14:54 75° WSW 19:20:04 10° SSE
Cosmos 1452 Rocket 4.0 19:10:16 10° S 19:14:16 43° SE 19:14:16 43° SE
BREEZE-M R/B 4.0 19:07:19 10° W 19:16:10 52° NNW 19:17:19 44° NNE
Cosmos 1025 Rocket 3.9 19:12:06 10° SSW 19:16:21 50° WNW 19:19:23 18° N
GEOS 3 Rocket 3.4 19:17:19 64° ENE 19:17:37 66° NE 19:22:41 10° NNW
Cosmos 2278 Rocket 4.5 19:15:04 10° W 19:18:53 18° NW 19:22:44 10° N
Cosmos 1153 Rocket 4.3 19:28:46 10° N 19:34:58 78° E 19:41:05 10° SSE
Cosmos 2058 Rocket 4.5 19:31:47 10° NNW 19:39:38 16° S 19:40:33 10° S
Cosmos 1605 Rocket 4.3 19:35:53 10° NNW 19:42:06 66° W 19:48:11 10° S
USA 234 3.9 19:43:35 38° NNE 19:45:21 46° NNW 19:51:30 10° W
Cosmos 2369 Rocket 3.6 20:15:34 10° SW 20:18:41 33° SW 20:18:41 33° SW
CZ-3B DEB 4.2 20:25:13 10° WNW 20:32:01 44° N 20:32:16 44° NNE
